User: anonymous   Login
Location: Unspecified
(0.0000°N, 0.0000°E)
Time: 09:19:29
(UTC+00:00)
Language:

SOMP - Orbit

View from above orbital plane
View from above orbital plane
View from above satellite
View from above satellite

Ground track
Ground track

The orbit data is extracted from the following two-line orbital elements,

1 39135U 13015F   17086.56482189 +.00001863 +00000-0 +10791-3 0  9995
2 39135 064.8688 137.7729 0028977 294.3823 065.4278 15.15272353216558
Epoch (UTC): 27 March 2017 13:33:20
Eccentricity: 0.0028977
inclination: 64.8688°
perigee height: 500 km
apogee height: 540 km
right ascension of ascending node: 137.7729°
argument of perigee: 294.3823°
revolutions per day: 15.15272353
mean anomaly at epoch: 65.4278°
orbit number at epoch: 21655

The dashed part of the orbit path shows where the satellite is in the earth's shadow,  

DLR